Regional Weather Roundup
Issued by NWS Memphis, TN

Home | Current Version | Previous Version | Text Only | Print | Product List | Glossary On
Versions: 1 2 3 4 5 6 7 8 9 10 11 12 13 14 15 16 17 18 19 20 21 22 23 24 25 26 27 28 29 30 31 32 33 34 35 36 37 38 39 40 41 42 43 44 45 46 47 48 49 50
000
ASUS44 KMEG 211210
RWRMEG
MEMPHIS CWA HOURLY WEATHER ROUNDUP
NATIONAL WEATHER SERVICE MEMPHIS TN
700 AM CDT THU AUG 21 2014

...WEST TENNESSEE...

CITY           SKY/WX    TMP DP  RH WIND       PRES   REMARKS
MEMPHIS INTL   PTCLDY    77  71  82 SW6       30.10R
6HR MIN TEMP:  76; 6HR MAX TEMP:  80;

NWS MEMPHIS      N/A     77 N/A N/A MISG        N/A
JACKSON        PTCLDY    75  70  84 SW7       30.09R
6HR MIN TEMP:  72; 6HR MAX TEMP:  76; 6HR PCP:  0.01;

LEXINGTON      CLEAR     72  70  94 CALM      30.10R
SAVANNAH       CLEAR     72  72 100 CALM      30.12R
DYERSBURG      PTCLDY    75  64  69 CALM      30.09R
6HR MIN TEMP:  73; 6HR MAX TEMP:  77;

UNION CITY     CLEAR     73  72  94 S3        30.06S
PARIS          CLEAR     70  68  94 CALM      30.09R
HUNTINGDON     PTCLDY    72  70  93 CALM      30.09R


...EASTERN ARKANSAS...

CITY           SKY/WX    TMP DP  RH WIND       PRES   REMARKS
JONESBORO      CLEAR     75  71  87 S3        30.06R
6HR MIN TEMP:  75; 6HR MAX TEMP:  80;

WEST MEMPHIS   CLEAR     74  73  97 S5        30.08R
6HR MIN TEMP:  73; 6HR MAX TEMP:  77;

BATESVILLE     CLEAR     77  70  78 SW8       30.05S
6HR MIN TEMP:  77; 6HR MAX TEMP:  79;

NEWPORT        CLEAR     75  72  91 S9        30.07R
6HR MIN TEMP:  74; 6HR MAX TEMP:  78;

WALNUT RIDGE   CLEAR     73  70  88 S9        30.05R
6HR MIN TEMP:  73; 6HR MAX TEMP:  77;

BLYTHEVILLE    PTCLDY    76  73  91 SW7       30.08R
6HR MIN TEMP:  75; 6HR MAX TEMP:  78;

SEARCY           N/A     73  72  97 CALM        N/A
6HR MIN TEMP:  73; 6HR MAX TEMP:  76;

STUTTGART      CLEAR     73  70  88 S7        30.09R
6HR MIN TEMP:  73; 6HR MAX TEMP:  79;

PINE BLUFF     CLEAR     73  70  90 SW7       30.10R
6HR MIN TEMP:  73; 6HR MAX TEMP:  76;

MONTICELLO     CLEAR     74  71  91 S3        30.10R
6HR MIN TEMP:  74; 6HR MAX TEMP:  79;



...NORTH MISSISSIPPI...

CITY           SKY/WX    TMP DP  RH WIND       PRES   REMARKS
TUPELO         CLEAR     74  70  87 CALM      30.12R
6HR MIN TEMP:  73; 6HR MAX TEMP:  77;

OLIVE BRANCH   PTCLDY    72  72 100 S6        30.11R
CLARKSDALE     CLEAR     73  73 100 CALM      30.11R
CORINTH        CLEAR     72  70  94 CALM      30.11R
GRENADA        CLEAR     72  70  94 CALM      30.13R
GREENWOOD      CLEAR     73  71  93 CALM      30.12R
6HR MIN TEMP:  72; 6HR MAX TEMP:  76;

COLUMBUS       CLEAR     73  73 100 SE2       30.13R
6HR MIN TEMP:  72; 6HR MAX TEMP:  75;

STARKVILLE     FAIR      70  68  94 CALM      30.13R
GOLDEN TRIANGL CLEAR     73  68  83 CALM      30.13R


...SOUTHEAST MISSOURI...

CITY           SKY/WX    TMP DP  RH WIND       PRES   REMARKS
WEST PLAINS    CLEAR     74  70  87 S6        30.08R
6HR MIN TEMP:  73; 6HR MAX TEMP:  78;

POPLAR BLUFF   CLEAR     73  70  90 SW5       30.04R
6HR MIN TEMP:  73; 6HR MAX TEMP:  78;

CAPE GIRARDEAU CLEAR     75  73  93 S5        30.04R
6HR MIN TEMP:  75; 6HR MAX TEMP:  80;



...NORTHWEST ALABAMA...

CITY           SKY/WX    TMP DP  RH WIND       PRES   REMARKS
MUSCLE SHOALS  CLEAR     72  70  93 CALM      30.13R FOG
6HR MIN TEMP:  71; 6HR MAX TEMP:  75;



...MIDDLE TENNESSEE...

CITY           SKY/WX    TMP DP  RH WIND       PRES   REMARKS
NASHVILLE      MOCLDY    71  70  96 S5        30.11R
6HR MIN TEMP:  70; 6HR MAX TEMP:  72;

CLARKSVILLE    MOCLDY    71  69  93 S3        30.08R
6HR MIN TEMP:  69; 6HR MAX TEMP:  71;

COLUMBIA       CLEAR     72  72 100 S3        30.11R
LEWISBURG      PTCLDY    69  66  90 CALM      30.12R


...WESTERN KENTUCKY...

CITY           SKY/WX    TMP DP  RH WIND       PRES   REMARKS
PADUCAH        CLEAR     78  73  84 SW7       30.04R
6HR MIN TEMP:  78; 6HR MAX TEMP:  80;

FORT CAMPBELL  MOCLDY    71  71 100 S5        30.08R
6HR MIN TEMP:  71; 6HR MAX TEMP:  71;



...CENTRAL ARKANSAS...

CITY           SKY/WX    TMP DP  RH WIND       PRES   REMARKS
LITTLE ROCK    PTCLDY    74  69  85 SW8       30.08R
6HR MIN TEMP:  73; 6HR MAX TEMP:  78;



SKY/WX REPORTED AS FAIR MEANS FEW OR NO CLOUDS BELOW
12 THOUSAND FEET.




USA.gov is the U.S. government's official web portal to all federal, state and local government web resources and services.